Time,TemperatureF,DewpointF,PressureIn,WindDirection,WindDirectionDegrees,WindSpeedMPH,WindSpeedGustMPH,Humidity,HourlyPrecipIn,Conditions,Clouds,dailyrainin,SolarRadiationWatts/m^2,SoftwareType,DateUTC
2013-09-09 00:04:00,66.5,63.2,29.97,ENE,76,0.0,0.0,89,0.00,,,0.00,0,Wunderground v.1.15,2013-09-09 05:04:00,
2013-09-09 00:09:00,66.4,63.1,29.97,ESE,107,0.0,0.0,89,0.00,,,0.00,0,Wunderground v.1.15,2013-09-09 05:09:00,
2013-09-09 00:14:00,66.4,63.1,29.97,ESE,107,0.0,0.0,89,0.00,,,0.00,0,Wunderground v.1.15,2013-09-09 05:14:00,
2013-09-09 00:19:00,66.4,63.1,29.97,East,101,0.0,0.0,89,0.00,,,0.00,0,Wunderground v.1.15,2013-09-09 05:19:00,
2013-09-09 00:25:00,66.3,63.0,29.97,East,101,0.0,0.0,89,0.00,,,0.00,0,Wunderground v.1.15,2013-09-09 05:25:00,
2013-09-09 00:31:00,66.4,63.1,29.97,East,101,0.0,0.0,89,0.00,,,0.00,0,Wunderground v.1.15,2013-09-09 05:31:00,
2013-09-09 00:36:00,66.3,63.0,29.97,East,101,0.0,0.0,89,0.00,,,0.00,0,Wunderground v.1.15,2013-09-09 05:36:00,
2013-09-09 00:42:00,66.3,63.0,29.97,ESE,115,0.0,0.0,89,0.00,,,0.00,0,Wunderground v.1.15,2013-09-09 05:42:00,
2013-09-09 00:48:00,66.4,63.1,29.96,ESE,104,0.0,0.0,89,0.00,,,0.00,0,Wunderground v.1.15,2013-09-09 05:48:00,
2013-09-09 00:54:00,66.4,63.1,29.96,ENE,76,0.0,0.0,89,0.00,,,0.00,0,Wunderground v.1.15,2013-09-09 05:54:00,
2013-09-09 01:00:00,66.5,63.2,29.95,East,82,0.0,0.0,89,0.00,,,0.00,0,Wunderground v.1.15,2013-09-09 06:00:00,
2013-09-09 01:05:00,66.5,63.2,29.95,East,100,0.0,0.0,89,0.00,,,0.00,0,Wunderground v.1.15,2013-09-09 06:05:00,
2013-09-09 01:10:00,66.5,63.2,29.95,East,100,0.0,0.0,89,0.00,,,0.00,0,Wunderground v.1.15,2013-09-09 06:10:00,
2013-09-09 01:16:00,66.6,63.3,29.94,ESE,105,0.0,0.0,89,0.00,,,0.00,0,Wunderground v.1.15,2013-09-09 06:16:00,
2013-09-09 01:22:00,66.8,63.5,29.94,ESE,121,0.0,0.0,89,0.00,,,0.00,0,Wunderground v.1.15,2013-09-09 06:22:00,
2013-09-09 01:27:00,66.7,63.4,29.94,ESE,119,0.0,0.0,89,0.00,,,0.00,0,Wunderground v.1.15,2013-09-09 06:27:00,
2013-09-09 01:32:00,66.5,63.2,29.94,ENE,63,0.0,0.0,89,0.00,,,0.00,0,Wunderground v.1.15,2013-09-09 06:32:00,
2013-09-09 01:38:00,66.5,63.2,29.94,ENE,63,0.0,0.0,89,0.00,,,0.00,0,Wunderground v.1.15,2013-09-09 06:38:00,
2013-09-09 01:43:00,66.3,63.3,29.94,ENE,63,0.0,0.0,90,0.00,,,0.00,0,Wunderground v.1.15,2013-09-09 06:43:00,
2013-09-09 01:49:00,66.2,63.2,29.93,ENE,63,0.0,0.0,90,0.00,,,0.00,0,Wunderground v.1.15,2013-09-09 06:49:00,
2013-09-09 01:54:00,66.2,63.2,29.93,ENE,62,0.0,0.0,90,0.00,,,0.00,0,Wunderground v.1.15,2013-09-09 06:54:00,
2013-09-09 01:59:00,66.3,63.3,29.93,ENE,63,0.0,0.0,90,0.00,,,0.00,0,Wunderground v.1.15,2013-09-09 06:59:00,
2013-09-09 02:05:00,66.4,63.4,29.93,ENE,63,0.0,0.0,90,0.00,,,0.00,0,Wunderground v.1.15,2013-09-09 07:05:00,
2013-09-09 02:11:00,66.4,63.4,29.93,ENE,63,0.0,0.0,90,0.00,,,0.00,0,Wunderground v.1.15,2013-09-09 07:11:00,
2013-09-09 02:16:00,66.4,63.4,29.93,ENE,63,0.0,0.0,90,0.00,,,0.00,0,Wunderground v.1.15,2013-09-09 07:16:00,
2013-09-09 02:21:00,66.3,63.3,29.93,ENE,63,0.0,0.0,90,0.00,,,0.00,0,Wunderground v.1.15,2013-09-09 07:21:00,
2013-09-09 02:26:00,66.2,63.2,29.93,ENE,63,0.0,0.0,90,0.00,,,0.00,0,Wunderground v.1.15,2013-09-09 07:26:00,
2013-09-09 02:32:00,66.3,63.6,29.93,ENE,63,0.0,0.0,91,0.00,,,0.00,0,Wunderground v.1.15,2013-09-09 07:32:00,
2013-09-09 02:38:00,66.3,63.6,29.93,ENE,63,0.0,0.0,91,0.00,,,0.00,0,Wunderground v.1.15,2013-09-09 07:38:00,
2013-09-09 02:44:00,66.2,63.5,29.93,ENE,63,0.0,0.0,91,0.00,,,0.00,0,Wunderground v.1.15,2013-09-09 07:44:00,
2013-09-09 02:50:00,66.1,63.4,29.92,ENE,63,0.0,0.0,91,0.00,,,0.00,0,Wunderground v.1.15,2013-09-09 07:50:00,
2013-09-09 02:55:00,66.0,63.3,29.92,ENE,63,0.0,0.0,91,0.00,,,0.00,0,Wunderground v.1.15,2013-09-09 07:55:00,
2013-09-09 03:00:00,66.0,63.3,29.92,ENE,63,0.0,0.0,91,0.00,,,0.00,0,Wunderground v.1.15,2013-09-09 08:00:00,
2013-09-09 03:05:00,66.0,63.3,29.92,ENE,63,0.0,0.0,91,0.00,,,0.00,0,Wunderground v.1.15,2013-09-09 08:05:00,
2013-09-09 03:10:00,66.3,63.6,29.92,ENE,63,0.0,0.0,91,0.00,,,0.00,0,Wunderground v.1.15,2013-09-09 08:10:00,
2013-09-09 03:15:00,66.4,63.7,29.92,ENE,63,0.0,0.0,91,0.00,,,0.00,0,Wunderground v.1.15,2013-09-09 08:15:00,
2013-09-09 03:21:00,66.3,63.6,29.92,ENE,63,0.0,0.0,91,0.00,,,0.00,0,Wunderground v.1.15,2013-09-09 08:21:00,
2013-09-09 03:27:00,66.4,64.0,29.92,ENE,63,0.0,0.0,92,0.00,,,0.00,0,Wunderground v.1.15,2013-09-09 08:27:00,
2013-09-09 03:32:00,66.4,64.0,29.92,ENE,63,0.0,0.0,92,0.00,,,0.00,0,Wunderground v.1.15,2013-09-09 08:32:00,
2013-09-09 03:38:00,66.3,63.9,29.92,ENE,63,0.0,0.0,92,0.00,,,0.00,0,Wunderground v.1.15,2013-09-09 08:38:00,
2013-09-09 03:44:00,66.4,64.0,29.92,ENE,63,0.0,0.0,92,0.00,,,0.00,0,Wunderground v.1.15,2013-09-09 08:44:00,
2013-09-09 03:50:00,66.6,64.2,29.91,SE,126,0.0,0.0,92,0.00,,,0.00,0,Wunderground v.1.15,2013-09-09 08:50:00,
2013-09-09 03:55:00,66.7,64.3,29.91,SSE,148,0.0,3.0,92,0.00,,,0.00,0,Wunderground v.1.15,2013-09-09 08:55:00,
2013-09-09 04:00:00,66.7,64.3,29.90,SSE,148,0.0,3.0,92,0.00,,,0.00,0,Wunderground v.1.15,2013-09-09 09:00:00,
2013-09-09 04:05:00,66.7,64.3,29.90,SSE,148,0.0,1.0,92,0.00,,,0.00,0,Wunderground v.1.15,2013-09-09 09:05:00,
2013-09-09 04:10:00,66.8,64.4,29.90,SSE,148,0.0,1.0,92,0.00,,,0.00,0,Wunderground v.1.15,2013-09-09 09:10:00,
2013-09-09 04:16:00,67.0,64.6,29.90,SE,139,0.0,3.0,92,0.00,,,0.00,0,Wunderground v.1.15,2013-09-09 09:16:00,
2013-09-09 04:21:00,67.0,64.6,29.90,SE,139,0.0,3.0,92,0.00,,,0.00,0,Wunderground v.1.15,2013-09-09 09:21:00,
2013-09-09 04:27:00,67.0,64.6,29.90,SSE,150,0.0,1.0,92,0.00,,,0.00,0,Wunderground v.1.15,2013-09-09 09:27:00,
2013-09-09 04:33:00,67.1,64.7,29.90,SSE,150,0.0,0.0,92,0.00,,,0.00,0,Wunderground v.1.15,2013-09-09 09:33:00,
2013-09-09 04:38:00,67.1,64.7,29.90,SSE,150,0.0,0.0,92,0.00,,,0.00,0,Wunderground v.1.15,2013-09-09 09:38:00,
2013-09-09 04:44:00,67.1,64.7,29.90,SSE,150,0.0,0.0,92,0.00,,,0.00,0,Wunderground v.1.15,2013-09-09 09:44:00,
2013-09-09 04:49:00,67.1,64.7,29.90,SSE,150,0.0,0.0,92,0.00,,,0.00,0,Wunderground v.1.15,2013-09-09 09:49:00,
2013-09-09 04:54:00,67.1,64.7,29.90,SSE,164,0.0,4.0,92,0.00,,,0.00,0,Wunderground v.1.15,2013-09-09 09:54:00,
2013-09-09 04:59:00,67.3,64.6,29.90,SSE,151,0.0,4.0,91,0.00,,,0.00,0,Wunderground v.1.15,2013-09-09 09:59:00,
2013-09-09 05:04:00,67.3,64.6,29.89,SE,146,1.0,1.0,91,0.00,,,0.00,0,Wunderground v.1.15,2013-09-09 10:04:00,
2013-09-09 05:10:00,67.0,64.3,29.89,SE,146,0.0,1.0,91,0.00,,,0.00,0,Wunderground v.1.15,2013-09-09 10:10:00,
2013-09-09 05:15:00,66.8,64.1,29.89,SE,146,0.0,0.0,91,0.00,,,0.00,0,Wunderground v.1.15,2013-09-09 10:15:00,
2013-09-09 05:20:00,66.9,64.2,29.89,SE,146,0.0,0.0,91,0.00,,,0.00,0,Wunderground v.1.15,2013-09-09 10:20:00,
2013-09-09 05:25:00,66.9,64.2,29.89,SE,146,0.0,0.0,91,0.00,,,0.00,0,Wunderground v.1.15,2013-09-09 10:25:00,
2013-09-09 05:31:00,67.0,64.3,29.89,SE,146,0.0,0.0,91,0.00,,,0.00,0,Wunderground v.1.15,2013-09-09 10:31:00,
2013-09-09 05:36:00,66.8,64.1,29.89,SE,146,0.0,0.0,91,0.00,,,0.00,0,Wunderground v.1.15,2013-09-09 10:36:00,
2013-09-09 05:42:00,66.7,64.0,29.89,SE,146,0.0,0.0,91,0.00,,,0.00,0,Wunderground v.1.15,2013-09-09 10:42:00,
2013-09-09 05:48:00,66.5,63.8,29.89,SE,146,0.0,0.0,91,0.00,,,0.00,0,Wunderground v.1.15,2013-09-09 10:48:00,
2013-09-09 05:53:00,66.1,63.4,29.89,SE,146,0.0,0.0,91,0.00,,,0.00,0,Wunderground v.1.15,2013-09-09 10:53:00,
2013-09-09 05:58:00,65.8,63.4,29.89,SE,146,0.0,0.0,92,0.00,,,0.00,0,Wunderground v.1.15,2013-09-09 10:58:00,
2013-09-09 06:03:00,65.7,63.6,29.89,SE,146,0.0,0.0,93,0.00,,,0.00,0,Wunderground v.1.15,2013-09-09 11:03:00,
2013-09-09 06:08:00,65.6,63.2,29.89,SE,146,0.0,0.0,92,0.00,,,0.00,0,Wunderground v.1.15,2013-09-09 11:08:00,
2013-09-09 06:14:00,65.3,63.2,29.89,SE,146,0.0,0.0,93,0.00,,,0.00,0,Wunderground v.1.15,2013-09-09 11:14:00,
2013-09-09 06:19:00,65.2,63.1,29.89,SE,146,0.0,0.0,93,0.00,,,0.00,0,Wunderground v.1.15,2013-09-09 11:19:00,
2013-09-09 06:25:00,65.3,63.2,29.89,SE,146,0.0,0.0,93,0.00,,,0.00,0,Wunderground v.1.15,2013-09-09 11:25:00,
2013-09-09 06:31:00,65.3,63.2,29.89,SE,146,0.0,0.0,93,0.00,,,0.00,0,Wunderground v.1.15,2013-09-09 11:31:00,
2013-09-09 06:37:00,65.1,63.0,29.89,SE,146,0.0,0.0,93,0.00,,,0.00,5,Wunderground v.1.15,2013-09-09 11:37:00,
2013-09-09 06:43:00,64.9,62.8,29.89,SE,146,0.0,0.0,93,0.00,,,0.00,11,Wunderground v.1.15,2013-09-09 11:43:00,
2013-09-09 06:48:00,64.8,63.0,29.89,SE,146,0.0,0.0,94,0.00,,,0.00,14,Wunderground v.1.15,2013-09-09 11:48:00,
2013-09-09 06:53:00,65.0,63.2,29.89,SE,146,0.0,0.0,94,0.00,,,0.00,18,Wunderground v.1.15,2013-09-09 11:53:00,
2013-09-09 06:59:00,65.1,63.3,29.89,SE,146,0.0,0.0,94,0.00,,,0.00,19,Wunderground v.1.15,2013-09-09 11:59:00,
2013-09-09 07:04:00,65.2,63.4,29.89,SE,146,0.0,0.0,94,0.00,,,0.00,18,Wunderground v.1.15,2013-09-09 12:04:00,
2013-09-09 07:10:00,65.3,63.5,29.89,SE,146,0.0,0.0,94,0.00,,,0.00,18,Wunderground v.1.15,2013-09-09 12:10:00,
2013-09-09 07:16:00,65.4,63.6,29.90,SE,146,0.0,0.0,94,0.00,,,0.00,23,Wunderground v.1.15,2013-09-09 12:16:00,
2013-09-09 07:22:00,65.5,63.7,29.90,SE,146,0.0,0.0,94,0.00,,,0.00,26,Wunderground v.1.15,2013-09-09 12:22:00,
2013-09-09 07:27:00,65.6,63.8,29.90,SE,146,0.0,0.0,94,0.00,,,0.00,33,Wunderground v.1.15,2013-09-09 12:27:00,
2013-09-09 07:33:00,65.7,63.9,29.90,SE,146,0.0,0.0,94,0.00,,,0.00,32,Wunderground v.1.15,2013-09-09 12:33:00,
2013-09-09 07:39:00,65.9,64.1,29.90,SE,146,0.0,0.0,94,0.00,,,0.00,33,Wunderground v.1.15,2013-09-09 12:39:00,
2013-09-09 07:44:00,66.0,64.2,29.90,SE,146,0.0,0.0,94,0.00,,,0.00,51,Wunderground v.1.15,2013-09-09 12:44:00,
2013-09-09 07:49:00,66.3,64.5,29.91,SE,146,0.0,0.0,94,0.00,,,0.00,95,Wunderground v.1.15,2013-09-09 12:49:00,
2013-09-09 07:54:00,66.5,64.4,29.91,SE,146,0.0,0.0,93,0.00,,,0.00,65,Wunderground v.1.15,2013-09-09 12:54:00,
2013-09-09 07:59:00,67.0,64.9,29.91,SE,146,0.0,0.0,93,0.00,,,0.00,72,Wunderground v.1.15,2013-09-09 12:59:00,
2013-09-09 08:04:00,67.2,65.1,29.91,SE,146,0.0,0.0,93,0.00,,,0.00,100,Wunderground v.1.15,2013-09-09 13:04:00,
2013-09-09 08:10:00,67.6,65.5,29.91,SE,146,0.0,0.0,93,0.00,,,0.00,100,Wunderground v.1.15,2013-09-09 13:10:00,
2013-09-09 08:16:00,67.9,65.5,29.90,SE,146,0.0,0.0,92,0.00,,,0.00,134,Wunderground v.1.15,2013-09-09 13:16:00,
2013-09-09 08:22:00,68.4,65.7,29.90,SE,146,0.0,0.0,91,0.00,,,0.00,139,Wunderground v.1.15,2013-09-09 13:22:00,
2013-09-09 08:28:00,68.8,66.1,29.90,SE,146,0.0,0.0,91,0.00,,,0.00,125,Wunderground v.1.15,2013-09-09 13:28:00,
2013-09-09 08:33:00,69.0,65.9,29.90,SE,138,0.0,0.0,90,0.00,,,0.00,141,Wunderground v.1.15,2013-09-09 13:33:00,
2013-09-09 08:39:00,69.5,66.4,29.90,SSE,155,0.0,0.0,90,0.00,,,0.00,156,Wunderground v.1.15,2013-09-09 13:39:00,
2013-09-09 08:45:00,69.9,66.8,29.89,SSW,194,0.0,0.0,90,0.00,,,0.00,165,Wunderground v.1.15,2013-09-09 13:45:00,
2013-09-09 08:50:00,70.0,66.9,29.89,South,182,0.0,0.0,90,0.00,,,0.00,93,Wunderground v.1.15,2013-09-09 13:50:00,
2013-09-09 08:55:00,70.2,67.1,29.89,WSW,249,0.0,0.0,90,0.00,,,0.00,151,Wunderground v.1.15,2013-09-09 13:55:00,
2013-09-09 09:00:00,70.3,67.2,29.90,South,185,0.0,0.0,90,0.00,,,0.00,149,Wunderground v.1.15,2013-09-09 14:00:00,
2013-09-09 09:06:00,70.5,67.4,29.90,South,174,0.0,0.0,90,0.00,,,0.00,172,Wunderground v.1.15,2013-09-09 14:06:00,
2013-09-09 09:12:00,70.7,67.6,29.90,SW,222,0.0,0.0,90,0.00,,,0.00,202,Wunderground v.1.15,2013-09-09 14:12:00,
2013-09-09 09:18:00,71.0,67.9,29.89,SSE,165,0.0,0.0,90,0.00,,,0.00,244,Wunderground v.1.15,2013-09-09 14:18:00,
2013-09-09 09:23:00,71.4,68.3,29.89,SSE,147,0.0,1.0,90,0.00,,,0.00,213,Wunderground v.1.15,2013-09-09 14:23:00,
2013-09-09 09:29:00,71.5,68.1,29.89,SSW,208,1.0,3.0,89,0.00,,,0.00,190,Wunderground v.1.15,2013-09-09 14:29:00,
2013-09-09 09:34:00,71.7,68.3,29.89,South,178,1.0,3.0,89,0.00,,,0.00,251,Wunderground v.1.15,2013-09-09 14:34:00,
2013-09-09 09:40:00,71.8,68.4,29.89,South,188,1.0,3.0,89,0.00,,,0.00,251,Wunderground v.1.15,2013-09-09 14:40:00,
2013-09-09 09:45:00,72.3,68.9,29.88,ESE,122,1.0,1.0,89,0.00,,,0.00,241,Wunderground v.1.15,2013-09-09 14:45:00,
2013-09-09 09:50:00,72.5,68.7,29.88,SE,140,1.0,3.0,88,0.00,,,0.00,258,Wunderground v.1.15,2013-09-09 14:50:00,
2013-09-09 09:56:00,72.8,69.0,29.88,SW,234,1.0,2.0,88,0.00,,,0.00,288,Wunderground v.1.15,2013-09-09 14:56:00,
2013-09-09 10:02:00,73.1,69.3,29.88,SW,223,1.0,1.0,88,0.00,,,0.00,520,Wunderground v.1.15,2013-09-09 15:02:00,
2013-09-09 10:08:00,73.5,69.4,29.88,South,181,1.0,3.0,87,0.00,,,0.00,540,Wunderground v.1.15,2013-09-09 15:08:00,
2013-09-09 10:14:00,74.0,69.5,29.88,SSE,165,1.0,3.0,86,0.00,,,0.00,506,Wunderground v.1.15,2013-09-09 15:14:00,
2013-09-09 10:19:00,74.5,70.0,29.87,SSE,155,1.0,3.0,86,0.00,,,0.00,557,Wunderground v.1.15,2013-09-09 15:19:00,
2013-09-09 10:24:00,74.8,70.0,29.87,SSW,198,0.0,0.0,85,0.00,,,0.00,566,Wunderground v.1.15,2013-09-09 15:24:00,
2013-09-09 10:29:00,75.0,69.8,29.87,SSW,198,0.0,2.0,84,0.00,,,0.00,570,Wunderground v.1.15,2013-09-09 15:29:00,
2013-09-09 10:34:00,75.4,70.2,29.87,SW,216,1.0,1.0,84,0.00,,,0.00,591,Wunderground v.1.15,2013-09-09 15:34:00,
2013-09-09 10:39:00,76.9,71.0,29.87,SE,134,1.0,1.0,82,0.00,,,0.00,677,Wunderground v.1.15,2013-09-09 15:39:00,
2013-09-09 10:44:00,76.9,70.6,29.87,SSW,208,2.0,4.0,81,0.00,,,0.00,601,Wunderground v.1.15,2013-09-09 15:44:00,
2013-09-09 10:49:00,77.1,71.2,29.87,SW,219,2.0,4.0,82,0.00,,,0.00,454,Wunderground v.1.15,2013-09-09 15:49:00,
2013-09-09 10:54:00,77.5,70.8,29.87,SSW,200,2.0,4.0,80,0.00,,,0.00,619,Wunderground v.1.15,2013-09-09 15:54:00,
2013-09-09 10:59:00,77.4,70.7,29.87,ESE,107,2.0,4.0,80,0.00,,,0.00,573,Wunderground v.1.15,2013-09-09 15:59:00,
2013-09-09 11:05:00,78.4,71.0,29.87,SSW,194,1.0,1.0,78,0.00,,,0.00,629,Wunderground v.1.15,2013-09-09 16:05:00,
2013-09-09 11:11:00,78.3,71.2,29.87,SSW,202,1.0,4.0,79,0.00,,,0.00,659,Wunderground v.1.15,2013-09-09 16:11:00,
2013-09-09 11:16:00,79.0,71.9,29.87,SE,131,2.0,2.0,79,0.00,,,0.00,663,Wunderground v.1.15,2013-09-09 16:16:00,
2013-09-09 11:22:00,79.0,71.6,29.87,SW,217,2.0,2.0,78,0.00,,,0.00,647,Wunderground v.1.15,2013-09-09 16:22:00,
2013-09-09 11:27:00,79.5,71.7,29.87,SSW,209,1.0,4.0,77,0.00,,,0.00,675,Wunderground v.1.15,2013-09-09 16:27:00,
2013-09-09 11:32:00,79.9,72.0,29.86,SE,138,1.0,4.0,77,0.00,,,0.00,684,Wunderground v.1.15,2013-09-09 16:32:00,
2013-09-09 11:37:00,79.7,71.8,29.86,SSW,202,2.0,3.0,77,0.00,,,0.00,691,Wunderground v.1.15,2013-09-09 16:37:00,
2013-09-09 11:43:00,80.6,71.9,29.86,SSE,161,2.0,2.0,75,0.00,,,0.00,701,Wunderground v.1.15,2013-09-09 16:43:00,
2013-09-09 11:48:00,81.0,71.9,29.85,South,178,2.0,3.0,74,0.00,,,0.00,715,Wunderground v.1.15,2013-09-09 16:48:00,
2013-09-09 11:53:00,80.8,72.1,29.85,SSE,147,2.0,5.0,75,0.00,,,0.00,708,Wunderground v.1.15,2013-09-09 16:53:00,
2013-09-09 11:58:00,82.4,72.9,29.85,East,98,3.0,5.0,73,0.00,,,0.00,715,Wunderground v.1.15,2013-09-09 16:58:00,
2013-09-09 12:04:00,81.5,72.0,29.85,SE,145,2.0,2.0,73,0.00,,,0.00,714,Wunderground v.1.15,2013-09-09 17:04:00,
2013-09-09 12:09:00,81.7,72.2,29.85,SSE,153,1.0,3.0,73,0.00,,,0.00,717,Wunderground v.1.15,2013-09-09 17:09:00,
2013-09-09 12:14:00,82.0,72.5,29.85,SW,214,1.0,4.0,73,0.00,,,0.00,703,Wunderground v.1.15,2013-09-09 17:14:00,
2013-09-09 12:19:00,82.2,72.7,29.85,SSE,167,2.0,4.0,73,0.00,,,0.00,724,Wunderground v.1.15,2013-09-09 17:19:00,
2013-09-09 12:25:00,82.2,73.1,29.85,SSE,164,1.0,3.0,74,0.00,,,0.00,726,Wunderground v.1.15,2013-09-09 17:25:00,
2013-09-09 12:30:00,82.4,72.9,29.84,SW,215,1.0,4.0,73,0.00,,,0.00,740,Wunderground v.1.15,2013-09-09 17:30:00,
2013-09-09 12:36:00,82.3,72.8,29.84,South,186,2.0,6.0,73,0.00,,,0.00,738,Wunderground v.1.15,2013-09-09 17:36:00,
2013-09-09 12:42:00,83.4,73.0,29.84,SE,136,2.0,8.0,71,0.00,,,0.00,737,Wunderground v.1.15,2013-09-09 17:42:00,
2013-09-09 12:48:00,83.2,72.4,29.84,SSW,203,2.0,4.0,70,0.00,,,0.00,729,Wunderground v.1.15,2013-09-09 17:48:00,
2013-09-09 12:53:00,83.3,72.9,29.84,SW,222,3.0,6.0,71,0.00,,,0.00,737,Wunderground v.1.15,2013-09-09 17:53:00,
2013-09-09 12:59:00,83.5,73.1,29.84,SSE,158,3.0,6.0,71,0.00,,,0.00,735,Wunderground v.1.15,2013-09-09 17:59:00,
2013-09-09 13:04:00,84.3,73.0,29.84,SE,126,2.0,5.0,69,0.00,,,0.00,742,Wunderground v.1.15,2013-09-09 18:04:00,
2013-09-09 13:10:00,84.2,72.9,29.84,SSW,201,3.0,5.0,69,0.00,,,0.00,770,Wunderground v.1.15,2013-09-09 18:10:00,
2013-09-09 13:15:00,83.8,72.5,29.83,SW,219,3.0,4.0,69,0.00,,,0.00,766,Wunderground v.1.15,2013-09-09 18:15:00,
2013-09-09 13:21:00,83.7,72.9,29.83,SW,224,4.0,6.0,70,0.00,,,0.00,756,Wunderground v.1.15,2013-09-09 18:21:00,
2013-09-09 13:26:00,84.6,73.3,29.83,SSE,155,3.0,4.0,69,0.00,,,0.00,726,Wunderground v.1.15,2013-09-09 18:26:00,
2013-09-09 13:32:00,84.7,73.8,29.83,SSE,165,2.0,4.0,70,0.00,,,0.00,728,Wunderground v.1.15,2013-09-09 18:32:00,
2013-09-09 13:38:00,84.3,73.4,29.83,SSW,205,2.0,5.0,70,0.00,,,0.00,749,Wunderground v.1.15,2013-09-09 18:38:00,
2013-09-09 13:44:00,84.8,73.1,29.83,South,170,2.0,2.0,68,0.00,,,0.00,714,Wunderground v.1.15,2013-09-09 18:44:00,
2013-09-09 13:50:00,85.6,74.3,29.82,SW,220,2.0,4.0,69,0.00,,,0.00,719,Wunderground v.1.15,2013-09-09 18:50:00,
2013-09-09 13:56:00,85.1,72.9,29.82,SSW,210,2.0,5.0,67,0.00,,,0.00,679,Wunderground v.1.15,2013-09-09 18:56:00,
2013-09-09 14:02:00,85.1,73.3,29.82,SSW,193,2.0,2.0,68,0.00,,,0.00,705,Wunderground v.1.15,2013-09-09 19:02:00,
2013-09-09 14:08:00,85.6,73.8,29.82,South,188,2.0,6.0,68,0.00,,,0.00,698,Wunderground v.1.15,2013-09-09 19:08:00,
2013-09-09 14:14:00,85.6,73.8,29.82,SW,219,2.0,2.0,68,0.00,,,0.00,691,Wunderground v.1.15,2013-09-09 19:14:00,
2013-09-09 14:20:00,85.8,73.1,29.81,SW,223,2.0,7.0,66,0.00,,,0.00,682,Wunderground v.1.15,2013-09-09 19:20:00,
2013-09-09 14:25:00,85.5,73.3,29.81,SSW,201,3.0,7.0,67,0.00,,,0.00,682,Wunderground v.1.15,2013-09-09 19:25:00,
2013-09-09 14:31:00,85.8,74.0,29.80,SSE,160,2.0,7.0,68,0.00,,,0.00,656,Wunderground v.1.15,2013-09-09 19:31:00,
2013-09-09 14:37:00,86.4,74.1,29.80,SSE,162,2.0,5.0,67,0.00,,,0.00,636,Wunderground v.1.15,2013-09-09 19:37:00,
2013-09-09 14:42:00,87.3,74.5,29.80,ESE,121,2.0,2.0,66,0.00,,,0.00,652,Wunderground v.1.15,2013-09-09 19:42:00,
2013-09-09 14:48:00,86.2,73.5,29.80,SSW,206,3.0,7.0,66,0.00,,,0.00,635,Wunderground v.1.15,2013-09-09 19:48:00,
2013-09-09 14:53:00,85.9,74.1,29.80,SSW,205,3.0,3.0,68,0.00,,,0.00,636,Wunderground v.1.15,2013-09-09 19:53:00,
2013-09-09 14:58:00,86.0,73.8,29.80,SW,231,3.0,7.0,67,0.00,,,0.00,,Wunderground v.1.15,2013-09-09 19:58:00,
2013-09-09 15:03:00,86.4,73.7,29.79,SSW,198,4.0,4.0,66,0.00,,,0.00,619,Wunderground v.1.15,2013-09-09 20:03:00,
2013-09-09 15:08:00,86.3,73.1,29.79,SW,222,4.0,9.0,65,0.00,,,0.00,601,Wunderground v.1.15,2013-09-09 20:08:00,
2013-09-09 15:14:00,86.4,74.1,29.79,SW,222,5.0,8.0,67,0.00,,,0.00,543,Wunderground v.1.15,2013-09-09 20:14:00,
2013-09-09 15:20:00,87.2,74.5,29.78,South,179,3.0,8.0,66,0.00,,,0.00,497,Wunderground v.1.15,2013-09-09 20:20:00,
2013-09-09 15:25:00,87.7,74.5,29.78,SSW,192,2.0,3.0,65,0.00,,,0.00,471,Wunderground v.1.15,2013-09-09 20:25:00,
2013-09-09 15:31:00,87.2,74.0,29.78,South,182,3.0,7.0,65,0.00,,,0.00,462,Wunderground v.1.15,2013-09-09 20:31:00,
2013-09-09 15:36:00,86.7,74.4,29.78,SW,216,3.0,7.0,67,0.00,,,0.00,482,Wunderground v.1.15,2013-09-09 20:36:00,
2013-09-09 15:42:00,86.9,74.6,29.78,SSW,205,3.0,5.0,67,0.00,,,0.00,504,Wunderground v.1.15,2013-09-09 20:42:00,
2013-09-09 15:48:00,86.7,75.3,29.78,South,181,4.0,7.0,69,0.00,,,0.00,512,Wunderground v.1.15,2013-09-09 20:48:00,
2013-09-09 15:54:00,87.4,75.1,29.78,WSW,238,3.0,4.0,67,0.00,,,0.00,492,Wunderground v.1.15,2013-09-09 20:54:00,
2013-09-09 15:59:00,87.0,74.7,29.78,SW,221,2.0,4.0,67,0.00,,,0.00,480,Wunderground v.1.15,2013-09-09 20:59:00,
2013-09-09 16:04:00,87.1,74.8,29.78,SSW,207,3.0,4.0,67,0.00,,,0.00,478,Wunderground v.1.15,2013-09-09 21:04:00,
2013-09-09 16:10:00,87.3,75.0,29.78,South,191,2.0,5.0,67,0.00,,,0.00,459,Wunderground v.1.15,2013-09-09 21:10:00,
2013-09-09 16:16:00,87.5,75.2,29.77,SE,129,2.0,7.0,67,0.00,,,0.00,448,Wunderground v.1.15,2013-09-09 21:16:00,
2013-09-09 16:21:00,87.8,75.5,29.77,ESE,108,2.0,7.0,67,0.00,,,0.00,438,Wunderground v.1.15,2013-09-09 21:21:00,
2013-09-09 16:27:00,88.0,75.2,29.77,SSW,202,2.0,6.0,66,0.00,,,0.00,411,Wunderground v.1.15,2013-09-09 21:27:00,
2013-09-09 16:32:00,87.6,75.3,29.77,SW,232,2.0,2.0,67,0.00,,,0.00,403,Wunderground v.1.15,2013-09-09 21:32:00,
2013-09-09 16:37:00,87.5,76.1,29.77,South,187,2.0,5.0,69,0.00,,,0.00,394,Wunderground v.1.15,2013-09-09 21:37:00,
2013-09-09 16:42:00,87.9,75.6,29.77,SSW,192,2.0,2.0,67,0.00,,,0.00,374,Wunderground v.1.15,2013-09-09 21:42:00,
2013-09-09 16:47:00,87.9,75.1,29.77,SSE,162,2.0,3.0,66,0.00,,,0.00,364,Wunderground v.1.15,2013-09-09 21:47:00,
2013-09-09 16:53:00,87.9,75.6,29.77,SSE,149,2.0,2.0,67,0.00,,,0.00,346,Wunderground v.1.15,2013-09-09 21:53:00,
2013-09-09 16:58:00,87.8,75.5,29.77,SW,229,2.0,5.0,67,0.00,,,0.00,339,Wunderground v.1.15,2013-09-09 21:58:00,
2013-09-09 17:03:00,88.0,75.7,29.77,SSE,150,2.0,2.0,67,0.00,,,0.00,313,Wunderground v.1.15,2013-09-09 22:03:00,
2013-09-09 17:09:00,88.1,75.8,29.77,SW,231,2.0,6.0,67,0.00,,,0.00,297,Wunderground v.1.15,2013-09-09 22:09:00,
2013-09-09 17:15:00,87.5,75.6,29.77,SSW,204,2.0,3.0,68,0.00,,,0.00,276,Wunderground v.1.15,2013-09-09 22:15:00,
2013-09-09 17:21:00,87.2,75.8,29.77,SSW,193,2.0,5.0,69,0.00,,,0.00,260,Wunderground v.1.15,2013-09-09 22:21:00,
2013-09-09 17:26:00,87.4,75.5,29.77,South,172,2.0,4.0,68,0.00,,,0.00,244,Wunderground v.1.15,2013-09-09 22:26:00,
2013-09-09 17:32:00,87.4,75.1,29.77,South,175,2.0,2.0,67,0.00,,,0.00,229,Wunderground v.1.15,2013-09-09 22:32:00,
2013-09-09 17:37:00,87.0,75.6,29.77,SSE,161,2.0,4.0,69,0.00,,,0.00,216,Wunderground v.1.15,2013-09-09 22:37:00,
2013-09-09 17:43:00,87.2,75.8,29.77,South,171,3.0,5.0,69,0.00,,,0.00,200,Wunderground v.1.15,2013-09-09 22:43:00,
2013-09-09 17:48:00,87.1,75.7,29.77,SSW,201,3.0,5.0,69,0.00,,,0.00,176,Wunderground v.1.15,2013-09-09 22:48:00,
2013-09-09 17:53:00,86.9,75.9,29.77,SSE,163,2.0,2.0,70,0.00,,,0.00,158,Wunderground v.1.15,2013-09-09 22:53:00,
2013-09-09 17:58:00,86.9,75.5,29.77,ESE,117,2.0,3.0,69,0.00,,,0.00,141,Wunderground v.1.15,2013-09-09 22:58:00,
2013-09-09 18:04:00,86.6,75.6,29.77,South,183,2.0,2.0,70,0.00,,,0.00,123,Wunderground v.1.15,2013-09-09 23:04:00,
2013-09-09 18:09:00,86.5,75.5,29.77,SSE,155,2.0,5.0,70,0.00,,,0.00,104,Wunderground v.1.15,2013-09-09 23:09:00,
2013-09-09 18:14:00,86.5,76.0,29.77,SSW,200,2.0,2.0,71,0.00,,,0.00,93,Wunderground v.1.15,2013-09-09 23:14:00,
2013-09-09 18:19:00,86.5,76.0,29.77,SW,232,1.0,2.0,71,0.00,,,0.00,79,Wunderground v.1.15,2013-09-09 23:19:00,
2013-09-09 18:24:00,86.4,75.9,29.77,SE,136,1.0,1.0,71,0.00,,,0.00,67,Wunderground v.1.15,2013-09-09 23:24:00,
2013-09-09 18:30:00,86.4,75.9,29.77,SE,136,0.0,1.0,71,0.00,,,0.00,56,Wunderground v.1.15,2013-09-09 23:30:00,
2013-09-09 18:35:00,86.3,75.8,29.77,SW,229,0.0,1.0,71,0.00,,,0.00,44,Wunderground v.1.15,2013-09-09 23:35:00,
2013-09-09 18:41:00,85.8,75.7,29.77,SSE,150,1.0,9.0,72,0.00,,,0.00,19,Wunderground v.1.15,2013-09-09 23:41:00,
2013-09-09 18:47:00,85.3,75.7,29.77,SSE,153,0.0,2.0,73,0.00,,,0.00,12,Wunderground v.1.15,2013-09-09 23:47:00,
2013-09-09 18:52:00,84.9,75.7,29.77,SE,132,0.0,2.0,74,0.00,,,0.00,12,Wunderground v.1.15,2013-09-09 23:52:00,
2013-09-09 18:58:00,84.5,75.7,29.77,SSW,200,0.0,2.0,75,0.00,,,0.00,7,Wunderground v.1.15,2013-09-09 23:58:00,
2013-09-09 19:04:00,84.0,75.2,29.77,SSE,159,0.0,0.0,75,0.00,,,0.00,0,Wunderground v.1.15,2013-09-10 00:04:00,
2013-09-09 19:09:00,83.6,75.2,29.77,South,186,0.0,0.0,76,0.00,,,0.00,0,Wunderground v.1.15,2013-09-10 00:09:00,
2013-09-09 19:14:00,83.3,75.3,29.77,South,187,0.0,1.0,77,0.00,,,0.00,0,Wunderground v.1.15,2013-09-10 00:14:00,
2013-09-09 19:19:00,83.3,75.3,29.78,SSW,200,0.0,1.0,77,0.00,,,0.00,0,Wunderground v.1.15,2013-09-10 00:19:00,
2013-09-09 19:24:00,83.1,75.1,29.78,SW,225,0.0,3.0,77,0.00,,,0.00,0,Wunderground v.1.15,2013-09-10 00:24:00,
2013-09-09 19:29:00,82.9,75.3,29.78,ESE,113,1.0,3.0,78,0.00,,,0.00,0,Wunderground v.1.15,2013-09-10 00:29:00,
2013-09-09 19:34:00,82.6,75.0,29.78,SSW,205,0.0,0.0,78,0.00,,,0.00,0,Wunderground v.1.15,2013-09-10 00:34:00,
2013-09-09 19:39:00,82.5,74.9,29.78,SW,220,0.0,0.0,78,0.00,,,0.00,0,Wunderground v.1.15,2013-09-10 00:39:00,
2013-09-09 19:45:00,82.4,74.8,29.78,SW,229,0.0,0.0,78,0.00,,,0.00,0,Wunderground v.1.15,2013-09-10 00:45:00,
2013-09-09 19:50:00,82.4,74.8,29.78,SSW,210,0.0,0.0,78,0.00,,,0.00,0,Wunderground v.1.15,2013-09-10 00:50:00,
2013-09-09 19:56:00,82.2,74.7,29.78,SW,219,0.0,1.0,78,0.00,,,0.00,0,Wunderground v.1.15,2013-09-10 00:56:00,
2013-09-09 20:02:00,82.0,74.8,29.78,SSW,208,0.0,0.0,79,0.00,,,0.00,0,Wunderground v.1.15,2013-09-10 01:02:00,
2013-09-09 20:08:00,81.7,74.5,29.78,SSW,208,0.0,0.0,79,0.00,,,0.00,0,Wunderground v.1.15,2013-09-10 01:08:00,
2013-09-09 20:13:00,81.5,74.7,29.78,SSW,209,0.0,0.0,80,0.00,,,0.00,0,Wunderground v.1.15,2013-09-10 01:13:00,
2013-09-09 20:18:00,81.2,74.4,29.78,SSW,210,0.0,1.0,80,0.00,,,0.00,0,Wunderground v.1.15,2013-09-10 01:18:00,
2013-09-09 20:24:00,81.3,74.5,29.78,SSW,202,0.0,2.0,80,0.00,,,0.00,0,Wunderground v.1.15,2013-09-10 01:24:00,
2013-09-09 20:30:00,81.5,74.4,29.78,SSW,195,1.0,4.0,79,0.00,,,0.00,0,Wunderground v.1.15,2013-09-10 01:30:00,
2013-09-09 20:35:00,81.7,74.2,29.78,South,187,1.0,2.0,78,0.00,,,0.00,0,Wunderground v.1.15,2013-09-10 01:35:00,
2013-09-09 20:40:00,82.0,74.5,29.78,South,175,2.0,2.0,78,0.00,,,0.00,0,Wunderground v.1.15,2013-09-10 01:40:00,
2013-09-09 20:46:00,82.4,74.5,29.78,South,175,2.0,6.0,77,0.00,,,0.00,0,Wunderground v.1.15,2013-09-10 01:46:00,
2013-09-09 20:51:00,82.8,74.5,29.78,SSW,207,3.0,6.0,76,0.00,,,0.00,0,Wunderground v.1.15,2013-09-10 01:51:00,
2013-09-09 20:57:00,83.1,74.4,29.78,South,173,3.0,6.0,75,0.00,,,0.00,0,Wunderground v.1.15,2013-09-10 01:57:00,
2013-09-09 21:02:00,83.2,74.0,29.78,SW,227,3.0,3.0,74,0.00,,,0.00,0,Wunderground v.1.15,2013-09-10 02:02:00,
2013-09-09 21:08:00,83.4,74.2,29.78,SSW,211,4.0,7.0,74,0.00,,,0.00,0,Wunderground v.1.15,2013-09-10 02:08:00,
2013-09-09 21:14:00,83.3,74.1,29.78,SSW,209,5.0,5.0,74,0.00,,,0.00,0,Wunderground v.1.15,2013-09-10 02:14:00,
2013-09-09 21:20:00,83.3,74.1,29.79,SW,221,4.0,9.0,74,0.00,,,0.00,0,Wunderground v.1.15,2013-09-10 02:20:00,
2013-09-09 21:25:00,83.2,73.6,29.79,SSW,207,4.0,5.0,73,0.00,,,0.00,0,Wunderground v.1.15,2013-09-10 02:25:00,
2013-09-09 21:30:00,83.1,73.5,29.79,SSW,206,5.0,10.0,73,0.00,,,0.00,0,Wunderground v.1.15,2013-09-10 02:30:00,
2013-09-09 21:35:00,83.1,73.5,29.79,SW,215,5.0,11.0,73,0.00,,,0.00,0,Wunderground v.1.15,2013-09-10 02:35:00,
2013-09-09 21:41:00,83.0,73.4,29.79,SSW,199,4.0,11.0,73,0.00,,,0.00,0,Wunderground v.1.15,2013-09-10 02:41:00,
2013-09-09 21:46:00,82.8,73.3,29.79,SW,216,4.0,4.0,73,0.00,,,0.00,0,Wunderground v.1.15,2013-09-10 02:46:00,
2013-09-09 21:51:00,82.7,73.2,29.79,SW,216,4.0,6.0,73,0.00,,,0.00,0,Wunderground v.1.15,2013-09-10 02:51:00,
2013-09-09 21:56:00,82.8,73.3,29.79,SW,231,4.0,9.0,73,0.00,,,0.00,0,Wunderground v.1.15,2013-09-10 02:56:00,
2013-09-09 22:02:00,82.7,73.2,29.79,SSW,212,5.0,5.0,73,0.00,,,0.00,0,Wunderground v.1.15,2013-09-10 03:02:00,
2013-09-09 22:08:00,82.6,72.7,29.79,SSW,205,5.0,11.0,72,0.00,,,0.00,0,Wunderground v.1.15,2013-09-10 03:08:00,
2013-09-09 22:13:00,82.8,72.8,29.79,SW,221,5.0,5.0,72,0.00,,,0.00,0,Wunderground v.1.15,2013-09-10 03:13:00,
2013-09-09 22:18:00,82.8,72.8,29.79,SSW,213,5.0,9.0,72,0.00,,,0.00,0,Wunderground v.1.15,2013-09-10 03:18:00,
2013-09-09 22:24:00,82.8,72.8,29.79,SW,225,5.0,9.0,72,0.00,,,0.00,0,Wunderground v.1.15,2013-09-10 03:24:00,
2013-09-09 22:30:00,82.9,72.5,29.79,SW,214,5.0,9.0,71,0.00,,,0.00,0,Wunderground v.1.15,2013-09-10 03:30:00,
2013-09-09 22:35:00,83.0,72.6,29.79,SW,221,6.0,9.0,71,0.00,,,0.00,0,Wunderground v.1.15,2013-09-10 03:35:00,
2013-09-09 22:41:00,83.0,72.6,29.79,SSW,209,6.0,9.0,71,0.00,,,0.00,0,Wunderground v.1.15,2013-09-10 03:41:00,
2013-09-09 22:46:00,82.9,72.5,29.79,SSW,205,6.0,8.0,71,0.00,,,0.00,0,Wunderground v.1.15,2013-09-10 03:46:00,
2013-09-09 22:51:00,82.8,72.4,29.79,SSW,211,5.0,8.0,71,0.00,,,0.00,0,Wunderground v.1.15,2013-09-10 03:51:00,
2013-09-09 22:57:00,82.7,71.9,29.79,SSW,207,6.0,8.0,70,0.00,,,0.00,0,Wunderground v.1.15,2013-09-10 03:57:00,
2013-09-09 23:01:00,82.5,72.1,29.79,SW,220,6.0,12.0,71,0.00,,,0.00,0,Wunderground v.1.15,2013-09-10 04:01:00,
2013-09-09 23:02:00,82.5,72.1,29.79,SSW,194,6.0,6.0,71,0.00,,,0.00,0,Wunderground v.1.15,2013-09-10 04:02:00,
2013-09-09 23:04:00,82.5,72.1,29.79,SSW,212,6.0,6.0,71,0.00,,,0.00,0,Wunderground v.1.15,2013-09-10 04:04:00,
2013-09-09 23:06:00,82.4,72.0,29.79,SW,223,6.0,6.0,71,0.00,,,0.00,0,Wunderground v.1.15,2013-09-10 04:06:00,
2013-09-09 23:07:00,82.4,72.0,29.79,SW,223,6.0,10.0,71,0.00,,,0.00,0,Wunderground v.1.15,2013-09-10 04:07:00,
2013-09-09 23:12:00,82.3,72.0,29.79,SSW,209,6.0,6.0,71,0.00,,,0.00,0,Wunderground v.1.15,2013-09-10 04:12:00,
2013-09-09 23:18:00,82.1,71.8,29.79,SSW,210,6.0,8.0,71,0.00,,,0.00,0,Wunderground v.1.15,2013-09-10 04:18:00,
2013-09-09 23:21:00,82.1,71.8,29.79,SW,219,6.0,10.0,71,0.00,,,0.00,0,Wunderground v.1.15,2013-09-10 04:21:00,
2013-09-09 23:27:00,82.0,72.1,29.79,SSW,210,7.0,11.0,72,0.00,,,0.00,0,Wunderground v.1.15,2013-09-10 04:27:00,
2013-09-09 23:32:00,81.8,71.9,29.79,SW,225,7.0,7.0,72,0.00,,,0.00,0,Wunderground v.1.15,2013-09-10 04:32:00,
2013-09-09 23:37:00,81.8,71.5,29.79,SW,217,7.0,9.0,71,0.00,,,0.00,0,Wunderground v.1.15,2013-09-10 04:37:00,
2013-09-09 23:42:00,81.7,71.8,29.79,SW,215,6.0,7.0,72,0.00,,,0.00,0,Wunderground v.1.15,2013-09-10 04:42:00,
2013-09-09 23:48:00,81.7,71.4,29.79,SW,229,7.0,10.0,71,0.00,,,0.00,0,Wunderground v.1.15,2013-09-10 04:48:00,
2013-09-09 23:54:00,81.5,71.6,29.79,SW,220,6.0,9.0,72,0.00,,,0.00,0,Wunderground v.1.15,2013-09-10 04:54:00,